Weather History for Tampa, FL

Change the Weather History Date:

Friday, November 18, 2011

  Actual Average Record
Temperature  
Mean Temperature 69 °F 69 °F  
Max Temperature 80 °F 78 °F 88 °F (1988)
Min Temperature 57 °F 60 °F 34 °F (1970)
Degree Days  
Heating Degree Days 0 1  
Month to date heating degree days 9 16  
Since 1 July heating degree days 10 20  
Cooling Degree Days 4 5  
Month to date cooling degree days 101 113  
Year to date cooling degree days 3791 3479  
Growing Degree Days 18 (Base 50)    
Moisture  
Dew Point 53 °F    
Average Humidity 60    
Maximum Humidity 72    
Minimum Humidity 48    
Precipitation  
Precipitation 0.00 in 0.05 in 1.84 in (1915)
Month to date precipitation 0.68 0.92  
Year to date precipitation 52.47 43.20  
Sea Level Pressure  
Sea Level Pressure 30.18 in    
Wind  
Wind Speed 9 mph (ENE)    
Max Wind Speed 15 mph    
Max Gust Speed 25 mph    
Visibility 10 miles    
Events      
T = Trace of Precipitation, MM = Missing Value Source: NWS Daily Summary

Daily Weather History Graph

Daily Weather History Graph

Search for Another Location

Airport:

Trip Planner

Search our weather history database for the weather conditions in past years. The results will help you decide how hot, cold, wet, or windy it might be!

Date:

Astronomy

Nov. 18, 2011 Rise Set
Actual Time 6:53 AM EST 5:36 PM EST
Civil Twilight 6:28 AM EST 6:01 PM EST
Nautical Twilight 6:00 AM EST 6:29 PM EST
Astronomical Twilight 5:32 AM EST 6:57 PM EST
Moon No Moon Rise 12:47 PM EST (11/18)
Length of Visible Light 11h 32m
Length of Day
10h 42m
Waning Gibbous, 49% of the Moon is Illuminated
Nov 18
Waning Gibbous
Nov 25
New
Dec 2
First Quarter
Dec 10
Full
Dec 17
Last Quarter

Hourly Weather History & Observations

Time (EST) Temp. Dew Point Humidity Pressure Visibility Wind Dir Wind Speed Gust Speed Precip Events Conditions
12:53 AM 64.0 °F 50.0 °F 60% 30.15 in 10.0 mi NNE 11.5 mph - N/A   Partly Cloudy
1:53 AM 62.1 °F 46.9 °F 58% 30.15 in 10.0 mi NNE 12.7 mph 18.4 mph N/A   Partly Cloudy
2:53 AM 60.1 °F 46.9 °F 62% 30.15 in 10.0 mi NE 9.2 mph - N/A   Scattered Clouds
3:53 AM 59.0 °F 46.4 °F 63% 30.15 in 10.0 mi NNE 11.5 mph 17.3 mph N/A   Partly Cloudy
4:53 AM 57.2 °F 46.4 °F 67% 30.15 in 10.0 mi NNE 12.7 mph 19.6 mph N/A   Clear
5:53 AM 57.0 °F 46.0 °F 67% 30.17 in 10.0 mi NE 8.1 mph 17.3 mph N/A   Clear
6:53 AM 57.2 °F 46.4 °F 67% 30.19 in 10.0 mi NNE 9.2 mph - N/A   Clear
7:53 AM 57.9 °F 48.0 °F 70% 30.21 in 10.0 mi NNE 9.2 mph - N/A   Clear
8:53 AM 63.0 °F 51.1 °F 65% 30.21 in 10.0 mi NE 9.2 mph - N/A   Clear
9:53 AM 68.0 °F 54.0 °F 61% 30.22 in 10.0 mi NE 10.4 mph 17.3 mph N/A   Clear
10:53 AM 73.0 °F 57.0 °F 57% 30.21 in 10.0 mi ENE 9.2 mph 19.6 mph N/A   Partly Cloudy
11:53 AM 77.0 °F 59.0 °F 54% 30.20 in 10.0 mi ENE 6.9 mph 20.7 mph N/A   Scattered Clouds
12:53 PM 79.0 °F 59.0 °F 50% 30.17 in 10.0 mi ENE 6.9 mph 18.4 mph N/A   Scattered Clouds
1:53 PM 79.0 °F 57.9 °F 48% 30.16 in 10.0 mi ENE 13.8 mph 20.7 mph N/A   Mostly Cloudy
2:53 PM 78.1 °F 57.9 °F 50% 30.15 in 10.0 mi East 9.2 mph 17.3 mph N/A   Mostly Cloudy
3:53 PM 77.0 °F 57.9 °F 52% 30.16 in 10.0 mi East 8.1 mph 17.3 mph N/A   Mostly Cloudy
4:53 PM 73.9 °F 57.0 °F 55% 30.17 in 10.0 mi East 6.9 mph 18.4 mph N/A   Mostly Cloudy
5:53 PM 73.0 °F 57.0 °F 57% 30.18 in 10.0 mi East 9.2 mph - N/A   Mostly Cloudy
6:53 PM 73.0 °F 55.9 °F 55% 30.20 in 10.0 mi ENE 4.6 mph 19.6 mph N/A   Mostly Cloudy
7:53 PM 72.0 °F 55.0 °F 55% 30.21 in 10.0 mi ENE 8.1 mph 16.1 mph N/A   Mostly Cloudy
8:53 PM 71.1 °F 55.0 °F 57% 30.22 in 10.0 mi ENE 6.9 mph 19.6 mph N/A   Mostly Cloudy
9:53 PM 70.0 °F 55.9 °F 61% 30.22 in 10.0 mi ENE 8.1 mph 19.6 mph N/A   Mostly Cloudy
10:53 PM 69.1 °F 55.9 °F 63% 30.22 in 10.0 mi ENE 8.1 mph - N/A   Mostly Cloudy
11:53 PM 69.1 °F 55.9 °F 63% 30.21 in 10.0 mi ENE 5.8 mph - N/A   Mostly Cloudy